Location: Unspecified
(0.0000°N, 0.0000°E)
Time: 03:21:15
(UTC+00:00)

LilacSat-2 - Visible Passes

Search period start: 04 July 2020 00:00
Search period end: 14 July 2020 00:00
Orbit: 513 x 534 km, 97.5° (Epoch: 03 July)

Date Brightness Start Highest point End Pass type
(mag) Time Alt. Az. Time Alt. Az. Time Alt. Az.
06 Jul ? 05:25:13 10° NNE 05:29:03 85° E 05:32:54 10° S visible
07 Jul ? 05:13:01 10° NNE 05:16:46 51° ESE 05:20:30 10° S visible
08 Jul ? 05:01:01 10° NE 05:04:28 32° ESE 05:07:55 10° SSE visible
09 Jul ? 04:49:14 10° NE 04:52:10 21° ESE 04:55:05 10° SSE visible
10 Jul ? 04:37:54 10° ENE 04:39:52 14° ESE 04:41:51 10° SE visible
13 Jul ? 05:33:06 10° N 05:36:55 70° W 05:40:44 10° SSW visible
